Location: Beang
(6.6177°N, 10.9863°W)
Time: 19:33:30
(UTC+00:00)

Delta 168 - Visible Passes

Search period start: 25 September 2020 00:00
Search period end: 05 October 2020 00:00
Orbit: 394 x 2050 km, 25.3° (Epoch: 24 September)

Date Brightness Start Highest point End Pass type
(mag) Time Alt. Az. Time Alt. Az. Time Alt. Az.
25 Sep 6.8 05:37:12 10° S 05:41:07 13° SSE 05:45:33 10° SE visible
25 Sep 3.0 19:30:59 10° WNW 19:36:31 88° NNE 19:38:37 27° ESE visible
26 Sep 6.7 05:24:09 10° S 05:27:57 13° SSE 05:32:17 10° ESE visible
26 Sep 3.3 19:17:37 10° WNW 19:23:37 80° SSW 19:26:53 16° ESE visible
27 Sep 6.7 05:11:09 10° S 05:14:48 14° SSE 05:19:00 10° ESE visible
27 Sep 3.7 19:04:12 10° WNW 19:10:41 71° SSW 19:14:59 10° SE visible
28 Sep 6.5 04:58:10 10° S 05:01:39 14° SSE 05:05:43 10° ESE visible
28 Sep 4.0 18:50:44 10° WNW 18:57:43 63° SSW 19:02:16 10° SE visible
29 Sep 6.4 04:45:11 10° S 04:48:32 14° SE 04:52:26 10° ESE visible
30 Sep 6.3 04:32:15 10° S 04:35:25 14° SE 04:39:09 10° ESE visible
01 Oct 6.2 04:19:43 11° S 04:22:20 14° SE 04:25:55 10° ESE visible
02 Oct 6.1 04:07:59 13° SSE 04:09:16 14° SE 04:12:40 10° ESE visible
02 Oct 5.1 05:59:32 10° SW 06:06:05 60° SSE 06:15:58 10° ENE visible
03 Oct 6.1 03:56:17 14° SE 03:56:17 14° SE 03:59:29 10° ESE visible
03 Oct 4.8 05:46:43 10° SW 05:52:52 64° SSE 06:02:18 10° ENE visible
04 Oct 6.3 03:44:35 13° SE 03:44:35 13° SE 03:46:19 10° ESE visible
04 Oct 4.5 05:34:28 13° SW 05:39:42 69° SSE 05:48:39 10° ENE visible
